Retour au catalogue

FENGYUN 1C DEB

ActifPO
NORAD 33684·DEBRIS·🇨🇳 China

Lancé May 10, 1999 depuis Taiyuan Satellite Launch Center

Loading…

Prochains Passages (prochaines 24 heures)

TLE

FraisSource: Space-Track

Époque: Sep 12, 2026, 05:23 UTC

1 33684U 99025DFV 26255.22464849  .00009953  00000-0  73828-3 0  9995
2 33684  99.0414 348.9461 0267544 204.6481 154.1746 14.78945109970249

Suivez FENGYUN 1C DEB en temps réel avec AllMySat

Download on the App Store